Regional Weather Roundup
Issued by NWS

Home | Current Version | Previous Version | Text Only | Print | Product List | Glossary On
Versions: 1 2 3 4 5 6 7 8 9 10 11 12 13 14 15 16 17 18 19 20 21 22 23 24 25 26 27 28
000
ASUS44 KLIX 101313
RWRLA
LOUISIANA WEATHER ROUNDUP
NATIONAL WEATHER SERVICE NEW ORLEANS LA
700 AM CST SAT DEC 10 2016

NOTE: "FAIR" INDICATES FEW OR NO CLOUDS BELOW 12,000 FEET WITH NO
      SIGNIFICANT WEATHER AND/OR OBSTRUCTIONS TO VISIBILITY.
      SKY/WX - SKY CONDITION AND SIGNIFICANT WEATHER.
      TMP - AIR TEMPERATURE.    DP   - DEWPOINT TEMPERATURE.
      RH  - RELATIVE HUMIDITY.  PRES - PRESSURE.
      HX  - HEAT INDEX.         WCI  - WIND CHILL INDEX.

*  THESE STATIONS ARE NOT NWS OR FAA STATIONS AND ARE NOT UNDER
   NWS QUALITY CONTROL.

LAZ040-048-061>063-065-066-069-101400-
SOUTHEAST LOUISIANA

CITY           SKY/WX    TMP DP  RH WIND       PRES   REMARKS
N.O. AUDUBON   NOT AVBL
N.O. INTL ARPT CLEAR     40  29  64 E12       30.53R WCI  33
N.O. LAKEFRONT CLEAR     39  27  62 E17       30.54R WCI  30
N.O. DOWNTOWN*   N/A     38  26  62 VRB5      30.53R WCI  34
RESERVE*       FAIR      37  30  75 NE5       30.53S WCI  33
SLIDELL        CLEAR     29  24  82 N6        30.53S WCI  23
BATON ROUGE    CLEAR     30  25  81 NE6       30.54R WCI  24
BOOTHVILLE     CLEAR     45  38  76 NE9G18    30.49S
BELLE CHASSE   CLEAR     36  29  75 NE8       30.52R WCI  30
BOGALUSA*      FAIR      29  24  82 CALM      30.56S
GALLIANO*      SUNNY     40  32  70 NE7       30.50S
NEW ROADS*     FAIR      32  24  73 CALM      30.55S
GONZALES*      FAIR      32  25  76 CALM      30.53S
HAMMOND*       CLEAR     30  23  74 CALM      30.55R
HOUMA*         CLEAR     36  28  75 NE9       30.51R WCI  29
PORT FOURCHON* SUNNY     46  37  71 NE14G21   30.48S

$$

LAZ041-044-053-054-101400-
SOUTHWEST LOUISIANA

CITY           SKY/WX    TMP DP  RH WIND       PRES   REMARKS
LAKE CHARLES   CLEAR     32  29  88 NE5       30.53R WCI  27
LAFAYETTE      CLEAR     32  27  81 NE7       30.53R WCI  26
PATTERSON      CLEAR    N/A N/A N/A NE12      30.52R
SALT POINT     NOT AVBL
NEW IBERIA     CLEAR     35  24  64 NE8       30.53R WCI  29
CHENAULT AIRPK CLEAR     30  27  86 VRB3      30.54R

$$

LAZ027-028-101400-
CENTRAL LOUISIANA

CITY           SKY/WX    TMP DP  RH WIND       PRES   REMARKS
FORT POLK      CLEAR     30  26  86 CALM      30.53R
ALEXANDRIA INT CLEAR     29  27  92 CALM      30.55R
ALEXANDRIA     CLEAR     27  26  96 CALM      30.55R

$$

LAZ001-002-101400-
NORTHWEST LOUISIANA

CITY           SKY/WX    TMP DP  RH WIND       PRES   REMARKS
SHREVEPORT     PTCLDY    32  26  78 SE3       30.54F
BARKSDALE AFB  PTCLDY    31  24  74 E3        30.55F
DTN SHREVEPORT PTCLDY    32  24  72 E7        30.55F WCI  26

$$

LAZ014-016-101400-
NORTHEAST LOUISIANA

CITY           SKY/WX    TMP DP  RH WIND       PRES   REMARKS
MONROE         CLEAR     26  23  88 N5        30.59R WCI  20
TALLULAH       PTCLDY    26  23  88 CALM      30.58R

$$





USA.gov is the U.S. government's official web portal to all federal, state and local government web resources and services.